TimeCST,TemperatureF,Dew PointF,Humidity,Sea Level PressureIn,VisibilityMPH,Wind Direction,Wind SpeedMPH,Gust SpeedMPH,PrecipitationIn,Events,Conditions,WindDirDegrees,DateUTC
12:55 AM,41.0,33.6,75,30.40,10.0,SSE,4.6,-,N/A,,Clear,160,2012-11-17 06:55:00
1:55 AM,40.1,32.5,74,30.40,10.0,SSE,6.9,-,N/A,,Clear,160,2012-11-17 07:55:00
2:23 AM,41.0,32.0,70,30.40,10.0,SSE,5.8,-,N/A,,Clear,160,2012-11-17 08:23:00
2:55 AM,40.1,32.4,74,30.40,10.0,SSE,4.6,-,0.00,,Clear,160,2012-11-17 08:55:00
3:45 AM,39.2,32.0,75,30.40,10.0,SSE,6.9,-,N/A,,Clear,150,2012-11-17 09:45:00
3:55 AM,39.7,31.8,73,30.40,10.0,SSE,6.9,-,0.00,,Clear,150,2012-11-17 09:55:00
4:07 AM,39.2,32.0,75,30.39,10.0,SE,10.4,-,N/A,,Clear,130,2012-11-17 10:07:00
4:08 AM,39.2,32.0,75,30.39,10.0,SE,10.4,-,N/A,,Clear,130,2012-11-17 10:08:00
4:30 AM,39.2,32.0,75,30.40,10.0,SSE,6.9,-,N/A,,Clear,160,2012-11-17 10:30:00
4:55 AM,38.7,31.6,76,30.41,10.0,South,6.9,-,N/A,,Clear,170,2012-11-17 10:55:00
5:55 AM,39.6,31.8,74,30.41,10.0,South,8.1,-,N/A,,Clear,170,2012-11-17 11:55:00
6:55 AM,39.0,30.9,73,30.43,10.0,SSE,6.9,-,N/A,,Clear,160,2012-11-17 12:55:00
7:55 AM,39.0,31.5,74,30.45,10.0,South,6.9,-,N/A,,Clear,180,2012-11-17 13:55:00
8:55 AM,44.6,33.8,66,30.45,10.0,South,8.1,-,N/A,,Clear,180,2012-11-17 14:55:00
9:55 AM,49.5,32.7,53,30.45,10.0,South,6.9,-,N/A,,Clear,170,2012-11-17 15:55:00
10:55 AM,53.6,34.7,49,30.44,10.0,South,10.4,-,N/A,,Clear,180,2012-11-17 16:55:00
11:55 AM,57.2,34.2,42,30.41,10.0,South,11.5,-,N/A,,Clear,170,2012-11-17 17:55:00
12:55 PM,59.4,34.3,39,30.38,10.0,South,9.2,-,N/A,,Clear,180,2012-11-17 18:55:00
1:55 PM,60.4,32.5,35,30.36,10.0,SSE,12.7,-,N/A,,Clear,150,2012-11-17 19:55:00
2:55 PM,61.2,32.4,34,30.34,10.0,South,11.5,-,N/A,,Clear,190,2012-11-17 20:55:00
3:55 PM,59.0,32.0,36,30.33,10.0,South,9.2,-,N/A,,Clear,170,2012-11-17 21:55:00
4:55 PM,57.2,32.4,39,30.32,10.0,SSE,5.8,-,N/A,,Clear,150,2012-11-17 22:55:00
5:55 PM,52.5,31.5,45,30.32,10.0,SSE,6.9,-,N/A,,Clear,160,2012-11-17 23:55:00
6:55 PM,47.8,32.7,56,30.33,10.0,SE,6.9,-,N/A,,Clear,140,2012-11-18 00:55:00
7:55 PM,48.2,30.0,49,30.33,10.0,SE,5.8,-,N/A,,Clear,140,2012-11-18 01:55:00
8:55 PM,47.3,28.9,49,30.33,10.0,SE,5.8,-,N/A,,Clear,140,2012-11-18 02:55:00
9:55 PM,45.5,28.8,52,30.32,10.0,SE,6.9,-,N/A,,Clear,140,2012-11-18 03:55:00
10:55 PM,46.0,28.4,50,30.32,10.0,SSE,9.2,-,N/A,,Clear,160,2012-11-18 04:55:00
11:55 PM,45.9,28.6,51,30.32,10.0,SSE,8.1,-,N/A,,Clear,160,2012-11-18 05:55:00